This demonstration page uses our WeatherBlox Daily Observations layout. Learn more.

Left ArrowRight Arrow

Hourly Observations for May 29, 2022

Temp ( °F °C ) Dew Point ( °F °C ) Humidity (%) Winds ( mph kmh ) Pressure ( in mb ) Visibility ( mi km ) Precip ( " mm )
12:53 am 00:53 Clear 63 17.2 60 15.6 90 90 Calm 29.94 1014 10 16 0.00 0.00
1:53 am 01:53 Clear 63 17.2 60 15.6 90 90 Calm 29.94 1014 10 16 0.00 0.00
2:53 am 02:53 Mostly Clear 62 16.7 59 15 90 90 Calm 29.94 1014 10 16 0.00 0.00
3:53 am 03:53 Mostly Cloudy 62 16.7 59 15 90 90 Calm 29.94 1014 10 16 0.00 0.00
4:53 am 04:53 Mostly Cloudy 61 16.1 59 15 93 93 Calm 29.94 1014 10 16 0.00 0.00
5:53 am 05:53 Clear 61 16.1 59 15 93 93 Calm 29.95 1014 10 16 0.00 0.00
6:53 am 06:53 Partly Cloudy 62 16.7 59 15 90 90 NE 3 6 29.97 1015 10 16 0.00 0.00
7:53 am 07:53 Mostly Sunny 64 17.8 61 16.1 90 90 Calm 29.99 1016 10 16 0.00 0.00
8:53 am 08:53 Sunny 70 21.1 63 17.2 79 79 N 3 6 30.01 1016 10 16 0.00 0.00
9:53 am 09:53 Sunny 76 24.4 64 17.8 67 67 Calm 30.01 1016 10 16 0.00 0.00
10:53 am 10:53 Sunny 79 26.1 60 15.6 52 52 SE 3 6 30.01 1016 10 16 0.00 0.00
11:53 am 11:53 Sunny 82 27.8 57 13.9 42 42 VRB 3 6 30.00 1016 10 16 0.00 0.00
12:53 pm 12:53 Partly Cloudy 83 28.3 56 13.3 40 40 SE 9 15 29.99 1016 10 16 0.00 0.00
1:53 pm 13:53 Mostly Cloudy 84 28.9 57 13.9 40 40 S 8 13 29.99 1016 10 16 0.00 0.00
2:53 pm 14:53 Mostly Cloudy 84 28.9 59 15 43 43 VRB 6 9 29.98 1015 10 16 0.00 0.00
3:53 pm 15:53 Sunny 85 29.4 56 13.3 37 37 ESE 9 15 29.97 1015 10 16 0.00 0.00
4:53 pm 16:53 Mostly Sunny 85 29.4 58 14.4 40 40 SE 8 13 29.96 1015 10 16 0.00 0.00
5:53 pm 17:53 Partly Cloudy 84 28.9 59 15 43 43 ESE 7 11 29.96 1015 10 16 0.00 0.00
6:53 pm 18:53 Sunny 85 29.4 59 15 42 42 VRB 6 9 29.95 1014 10 16 0.00 0.00
7:53 pm 19:53 Sunny 83 28.3 59 15 44 44 ESE 7 11 29.95 1014 10 16 0.00 0.00
8:53 pm 20:53 Clear 81 27.2 59 15 47 47 ESE 5 7 29.96 1014 10 16 0.00 0.00
9:53 pm 21:53 Clear 78 25.6 60 15.6 54 54 Calm 29.97 1015 10 16 0.00 0.00
10:53 pm 22:53 Clear 77 25 61 16.1 58 58 ESE 3 6 30.00 1016 10 16 0.00 0.00
11:53 pm 23:53 Clear 69 20.6 63 17.2 81 81 Calm 30.02 1017 10 16 0.00 0.00

Powered by AerisWeather